| time (UTC) | temp C | wind direction | speed KPH | gust KPH | rain 1hr cm | rain 24hr cm | rain mn cm | humidity % | barometer mb |
| 20260905022647 | 18 | 133 | 0.0 | 0.0 | 0.00 | 0.71 | 0.71 | 99 | 1019.6 |
| 20260905022143 | 18 | 181 | 0.0 | 1.6 | 0.00 | 0.71 | 0.71 | 99 | 1019.4 |
| 20260905021642 | 18 | 270 | 1.6 | 3.2 | 0.00 | 0.71 | 0.71 | 99 | 1019.4 |
| 20260905021138 | 18 | 243 | 0.0 | 3.2 | 0.00 | 0.71 | 0.71 | 99 | 1019.3 |
| 20260905020633 | 18 | 225 | 0.0 | 0.0 | 0.00 | 0.71 | 0.71 | 99 | 1019.2 |
| 20260905020128 | 18 | 217 | 0.0 | 1.6 | 0.00 | 0.71 | 0.71 | 99 | 1019.2 |
| 20260905015626 | 18 | 192 | 1.6 | 4.8 | 0.00 | 0.71 | 0.71 | 99 | 1019.2 |
| 20260905015121 | 18 | 182 | 1.6 | 1.6 | 0.00 | 0.71 | 0.71 | 99 | 1019.3 |
| 20260905014614 | 18 | 152 | 0.0 | 0.0 | 0.00 | 0.71 | 0.71 | 99 | 1019.4 |
| 20260905014111 | 18 | 213 | 0.0 | 0.0 | 0.00 | 0.71 | 0.71 | 99 | 1019.2 |
| 20260905013607 | 18 | 228 | 0.0 | 0.0 | 0.00 | 0.71 | 0.71 | 99 | 1019.1 |
| 20260905013103 | 18 | 239 | 0.0 | 0.0 | 0.00 | 0.71 | 0.71 | 99 | 1019.0 |
| 20260905012601 | 18 | 223 | 0.0 | 0.0 | 0.00 | 0.71 | 0.71 | 99 | 1019.1 |
| 20260905012059 | 18 | 38 | 0.0 | 0.0 | 0.00 | 0.71 | 0.71 | 99 | 1019.0 |
| 20260905011555 | 18 | 38 | 0.0 | 0.0 | 0.00 | 0.71 | 0.71 | 99 | 1019.0 |
| 20260905011050 | 18 | 38 | 0.0 | 0.0 | 0.00 | 0.71 | 0.71 | 99 | 1019.1 |
| 20260905010544 | 18 | 62 | 0.0 | 0.0 | 0.00 | 0.71 | 0.71 | 99 | 1019.1 |
| 20260905010041 | 18 | 49 | 0.0 | 0.0 | 0.00 | 0.71 | 0.71 | 99 | 1018.9 |
| 20260905005536 | 18 | 304 | 0.0 | 0.0 | 0.00 | 0.71 | 0.71 | 99 | 1018.9 |
| 20260905005032 | 18 | 273 | 0.0 | 0.0 | 0.00 | 0.71 | 0.71 | 99 | 1019.2 |
| 20260905004532 | 18 | 234 | 0.0 | 0.0 | 0.00 | 0.71 | 0.71 | 99 | 1019.0 |
| 20260905004027 | 18 | 176 | 0.0 | 0.0 | 0.00 | 0.71 | 0.71 | 99 | 1019.0 |
| 20260905003523 | 18 | 143 | 0.0 | 0.0 | 0.00 | 0.71 | 0.71 | 99 | 1019.2 |
| 20260905003018 | 19 | 98 | 0.0 | 0.0 | 0.00 | 0.71 | 0.71 | 99 | 1019.2 |
| 20260905002513 | 19 | 85 | 0.0 | 0.0 | 0.00 | 0.71 | 0.71 | 99 | 1019.1 |
| 20260905002008 | 19 | 155 | 0.0 | 0.0 | 0.00 | 0.71 | 0.71 | 99 | 1019.1 |
| 20260905001503 | 19 | 153 | 0.0 | 0.0 | 0.00 | 0.71 | 0.71 | 99 | 1019.2 |
| 20260905000957 | 19 | 155 | 0.0 | 0.0 | 0.00 | 0.71 | 0.71 | 99 | 1019.0 |
| 20260905000454 | 19 | 155 | 0.0 | 0.0 | 0.00 | 0.71 | 0.71 | 99 | 1019.1 |
| 20260904235948 | 19 | 155 | 0.0 | 0.0 | 0.00 | 0.71 | 0.71 | 99 | 1019.0 |
| 20260904235443 | 19 | 155 | 0.0 | 0.0 | 0.00 | 0.71 | 0.71 | 99 | 1019.0 |
| 20260904234937 | 19 | 137 | 0.0 | 0.0 | 0.00 | 0.71 | 0.71 | 99 | 1019.2 |
| 20260904234437 | 19 | 206 | 0.0 | 0.0 | 0.00 | 0.71 | 0.71 | 99 | 1019.0 |
| 20260904233934 | 19 | 223 | 0.0 | 0.0 | 0.00 | 0.71 | 0.71 | 99 | 1018.9 |
| 20260904233429 | 20 | 108 | 0.0 | 1.6 | 0.00 | 0.71 | 0.71 | 99 | 1018.9 |
| 20260904232925 | 20 | 46 | 0.0 | 0.0 | 0.00 | 0.71 | 0.71 | 99 | 1019.1 |
| 20260904232421 | 20 | 348 | 0.0 | 0.0 | 0.00 | 0.71 | 0.71 | 99 | 1019.1 |
| 20260904231918 | 20 | 35 | 0.0 | 1.6 | 0.00 | 0.71 | 0.71 | 99 | 1019.1 |
| 20260904231413 | 20 | 55 | 4.8 | 4.8 | 0.00 | 0.71 | 0.71 | 99 | 1019.1 |
| 20260904230908 | 20 | 58 | 0.0 | 0.0 | 0.00 | 0.71 | 0.71 | 99 | 1019.1 |
| 20260904230406 | 20 | 40 | 0.0 | 0.0 | 0.00 | 0.71 | 0.71 | 99 | 1019.0 |
| 20260904225901 | 20 | 8 | 0.0 | 0.0 | 0.00 | 0.71 | 0.71 | 99 | 1018.8 |
| 20260904225359 | 20 | 101 | 0.0 | 0.0 | 0.00 | 0.71 | 0.71 | 98 | 1018.7 |
| 20260904224859 | 20 | 83 | 1.6 | 3.2 | 0.00 | 0.71 | 0.71 | 98 | 1018.9 |
| 20260904224355 | 20 | 56 | 0.0 | 0.0 | 0.00 | 0.71 | 0.71 | 98 | 1018.9 |
| 20260904223849 | 20 | 104 | 0.0 | 0.0 | 0.00 | 0.71 | 0.71 | 98 | 1018.7 |
| 20260904223348 | 20 | 102 | 0.0 | 0.0 | 0.00 | 0.71 | 0.71 | 98 | 1018.8 |
| 20260904222844 | 20 | 215 | 1.6 | 1.6 | 0.00 | 0.71 | 0.71 | 99 | 1018.6 |
| 20260904222339 | 20 | 227 | 3.2 | 4.8 | 0.00 | 0.71 | 0.71 | 99 | 1018.7 |
| 20260904221839 | 20 | 221 | 3.2 | 4.8 | 0.00 | 0.71 | 0.71 | 98 | 1018.8 |
| 20260904221334 | 20 | 238 | 0.0 | 4.8 | 0.00 | 0.71 | 0.71 | 98 | 1018.9 |
| 20260904220829 | 20 | 174 | 3.2 | 3.2 | 0.00 | 0.71 | 0.71 | 97 | 1019.0 |
| 20260904220328 | 19 | 196 | 0.0 | 3.2 | 0.00 | 0.71 | 0.71 | 97 | 1019.0 |
| 20260904215824 | 19 | 20 | 0.0 | 0.0 | 0.00 | 0.71 | 0.71 | 98 | 1019.3 |
| 20260904215319 | 19 | 88 | 0.0 | 1.6 | 0.00 | 0.71 | 0.71 | 97 | 1019.8 |
| 20260904214815 | 20 | 62 | 3.2 | 4.8 | 0.00 | 0.71 | 0.71 | 97 | 1019.8 |
| 20260904214310 | 20 | 140 | 0.0 | 0.0 | 0.00 | 0.71 | 0.71 | 96 | 1019.7 |
| 20260904213808 | 20 | 238 | 0.0 | 0.0 | 0.00 | 0.71 | 0.71 | 96 | 1019.6 |
| 20260904213304 | 20 | 293 | 4.8 | 6.4 | 0.00 | 0.71 | 0.71 | 94 | 1019.7 |
| 20260904212759 | 20 | 257 | 3.2 | 3.2 | 0.30 | 0.71 | 0.71 | 94 | 1019.0 |
| 20260904212254 | 20 | 128 | 3.2 | 4.8 | 0.48 | 0.71 | 0.71 | 93 | 1019.7 |
| 20260904211749 | 20 | 222 | 3.2 | 4.8 | 0.18 | 0.66 | 0.66 | 94 | 1019.5 |
| 20260904211244 | 20 | 236 | 0.0 | 3.2 | 0.13 | 0.64 | 0.64 | 93 | 1019.8 |
| 20260904210739 | 21 | 243 | 4.8 | 6.4 | 0.13 | 0.64 | 0.64 | 91 | 1020.1 |
| 20260904210233 | 20 | 73 | 8.0 | 11.3 | 0.00 | 0.61 | 0.61 | 87 | 1019.8 |
| 20260904205730 | 20 | 117 | 3.2 | 4.8 | 0.00 | 0.61 | 0.61 | 91 | 1020.7 |
| 20260904205225 | 20 | 95 | 4.8 | 6.4 | 0.00 | 0.61 | 0.61 | 91 | 1020.6 |
| 20260904204722 | 20 | 102 | 6.4 | 11.3 | 0.00 | 0.61 | 0.61 | 85 | 1021.1 |
| 20260904204217 | 21 | 125 | 3.2 | 9.7 | 0.18 | 0.61 | 0.61 | 87 | 1021.5 |
| 20260904203713 | 22 | 88 | 8.0 | 11.3 | 0.30 | 0.58 | 0.58 | 85 | 1021.4 |
| 20260904203210 | 22 | 99 | 6.4 | 17.7 | 0.30 | 0.58 | 0.58 | 81 | 1021.4 |
| 20260904202705 | 23 | 189 | 9.7 | 48.3 | 0.00 | 0.53 | 0.53 | 79 | 1021.5 |
| 20260904202201 | 24 | 294 | 11.3 | 25.7 | 0.00 | 0.53 | 0.53 | 76 | 1022.2 |
| 20260904201656 | 25 | 221 | 3.2 | 12.9 | 0.00 | 0.53 | 0.53 | 77 | 1021.5 |
| 20260904201151 | 26 | 243 | 6.4 | 17.7 | 0.00 | 0.53 | 0.53 | 75 | 1021.2 |
| 20260904200650 | 26 | 338 | 3.2 | 3.2 | 0.00 | 0.53 | 0.53 | 81 | 1020.6 |
| 20260904200146 | 26 | 14 | 4.8 | 6.4 | 0.00 | 0.53 | 0.53 | 80 | 1019.9 |
| 20260904195644 | 27 | 25 | 3.2 | 9.7 | 0.00 | 0.53 | 0.53 | 76 | 1019.7 |
| 20260904195143 | 27 | 25 | 6.4 | 6.4 | 0.00 | 0.53 | 0.53 | 74 | 1019.6 |
| 20260904194638 | 28 | 18 | 3.2 | 6.4 | 0.00 | 0.53 | 0.53 | 72 | 1019.5 |
| 20260904194132 | 28 | 43 | 3.2 | 6.4 | 0.00 | 0.53 | 0.53 | 71 | 1019.3 |
| 20260904193627 | 28 | 145 | 1.6 | 4.8 | 0.00 | 0.53 | 0.53 | 70 | 1019.0 |
| 20260904193124 | 29 | 2 | 3.2 | 4.8 | 0.00 | 0.53 | 0.53 | 69 | 1019.1 |
| 20260904192623 | 30 | 60 | 0.0 | 0.0 | 0.00 | 0.53 | 0.53 | 62 | 1018.9 |
| 20260904192119 | 31 | 305 | 3.2 | 3.2 | 0.00 | 0.53 | 0.53 | 59 | 1018.9 |
| 20260904191616 | 31 | 209 | 0.0 | 0.0 | 0.00 | 0.53 | 0.53 | 64 | 1019.0 |
| 20260904191112 | 30 | 284 | 1.6 | 3.2 | 0.00 | 0.53 | 0.53 | 62 | 1018.9 |
| 20260904190607 | 30 | 178 | 1.6 | 11.3 | 0.00 | 0.53 | 0.53 | 59 | 1018.8 |
| 20260904185600 | 30 | 297 | 1.6 | 1.6 | 0.00 | 0.53 | 0.53 | 60 | 1018.5 |
| 20260904185054 | 31 | 101 | 3.2 | 3.2 | 0.00 | 0.53 | 0.53 | 57 | 1018.5 |
| 20260904184548 | 30 | 35 | 0.0 | 1.6 | 0.00 | 0.53 | 0.53 | 58 | 1018.6 |
| 20260904184043 | 30 | 287 | 3.2 | 3.2 | 0.00 | 0.53 | 0.53 | 59 | 1018.8 |
| 20260904183544 | 30 | 192 | 1.6 | 1.6 | 0.00 | 0.53 | 0.53 | 64 | 1019.1 |
| 20260904183039 | 30 | 142 | 1.6 | 6.4 | 0.00 | 0.53 | 0.53 | 65 | 1019.0 |
| 20260904182535 | 31 | 126 | 0.0 | 1.6 | 0.00 | 0.53 | 0.53 | 66 | 1019.3 |
| 20260904182035 | 31 | 37 | 1.6 | 3.2 | 0.00 | 0.53 | 0.53 | 63 | 1019.4 |
| 20260904181530 | 30 | 1 | 0.0 | 0.0 | 0.00 | 0.53 | 0.53 | 63 | 1019.5 |
| 20260904181024 | 30 | 333 | 3.2 | 6.4 | 0.00 | 0.53 | 0.53 | 61 | 1019.7 |
| 20260904180519 | 30 | 149 | 4.8 | 4.8 | 0.00 | 0.53 | 0.53 | 61 | 1019.5 |
| 20260904180014 | 31 | 303 | 1.6 | 6.4 | 0.00 | 0.53 | 0.53 | 59 | 1019.5 |
| 20260904175509 | 31 | 267 | 0.0 | 9.7 | 0.00 | 0.53 | 0.53 | 60 | 1019.7 |
| 20260904175007 | 31 | 226 | 4.8 | 6.4 | 0.00 | 0.53 | 0.53 | 62 | 1019.7 |
| 20260904174502 | 30 | 22 | 0.0 | 1.6 | 0.00 | 0.53 | 0.53 | 65 | 1019.7 |
| 20260904173959 | 31 | 22 | 0.0 | 1.6 | 0.00 | 0.53 | 0.53 | 63 | 1019.7 |
| 20260904173453 | 32 | 21 | 1.6 | 1.6 | 0.00 | 0.53 | 0.53 | 59 | 1019.7 |
| 20260904172949 | 32 | 89 | 0.0 | 4.8 | 0.00 | 0.53 | 0.53 | 56 | 1019.8 |
| 20260904172444 | 32 | 269 | 1.6 | 1.6 | 0.00 | 0.53 | 0.53 | 64 | 1019.8 |
| 20260904171938 | 31 | 278 | 3.2 | 4.8 | 0.00 | 0.53 | 0.53 | 60 | 1019.8 |
| 20260904171434 | 31 | 259 | 0.0 | 6.4 | 0.00 | 0.53 | 0.53 | 64 | 1020.0 |
| 20260904170930 | 31 | 174 | 4.8 | 11.3 | 0.00 | 0.53 | 0.53 | 59 | 1019.9 |
| 20260904170425 | 31 | 256 | 1.6 | 3.2 | 0.00 | 0.53 | 0.53 | 63 | 1019.9 |
| 20260904165920 | 30 | 300 | 6.4 | 20.9 | 0.00 | 0.53 | 0.53 | 62 | 1020.1 |
| 20260904165419 | 30 | 272 | 3.2 | 4.8 | 0.00 | 0.53 | 0.53 | 64 | 1020.1 |
| 20260904164919 | 30 | 269 | 1.6 | 4.8 | 0.00 | 0.53 | 0.53 | 65 | 1020.1 |
| 20260904164419 | 30 | 273 | 6.4 | 11.3 | 0.00 | 0.53 | 0.53 | 65 | 1020.5 |
| 20260904163915 | 30 | 16 | 0.0 | 6.4 | 0.00 | 0.53 | 0.53 | 64 | 1020.1 |
| 20260904163414 | 30 | 4 | 0.0 | 4.8 | 0.00 | 0.53 | 0.53 | 65 | 1020.5 |
| 20260904162914 | 31 | 331 | 0.0 | 6.4 | 0.00 | 0.53 | 0.53 | 70 | 1020.7 |
| 20260904162410 | 30 | 92 | 4.8 | 4.8 | 0.00 | 0.53 | 0.53 | 64 | 1020.7 |
| 20260904161905 | 30 | 7 | 6.4 | 6.4 | 0.00 | 0.53 | 0.53 | 67 | 1020.7 |
| 20260904161400 | 30 | 66 | 3.2 | 6.4 | 0.00 | 0.53 | 0.53 | 64 | 1020.6 |
| 20260904160856 | 31 | 15 | 1.6 | 3.2 | 0.00 | 0.53 | 0.53 | 66 | 1020.5 |
| 20260904160350 | 30 | 129 | 0.0 | 3.2 | 0.00 | 0.53 | 0.53 | 68 | 1020.6 |
| 20260904155846 | 31 | 304 | 3.2 | 4.8 | 0.00 | 0.53 | 0.53 | 67 | 1020.8 |
| 20260904155340 | 31 | 73 | 0.0 | 3.2 | 0.00 | 0.53 | 0.53 | 66 | 1020.7 |
| 20260904154838 | 30 | 240 | 3.2 | 4.8 | 0.00 | 0.53 | 0.53 | 68 | 1020.8 |
| 20260904154333 | 30 | 126 | 3.2 | 4.8 | 0.00 | 0.53 | 0.53 | 72 | 1020.8 |
| 20260904153829 | 30 | 335 | 0.0 | 3.2 | 0.00 | 0.53 | 0.53 | 66 | 1020.6 |
| 20260904153324 | 29 | 62 | 4.8 | 17.7 | 0.00 | 0.53 | 0.53 | 68 | 1020.8 |
| 20260904152821 | 29 | 170 | 1.6 | 11.3 | 0.00 | 0.53 | 0.53 | 72 | 1020.6 |
| 20260904152320 | 30 | 284 | 4.8 | 4.8 | 0.00 | 0.53 | 0.53 | 70 | 1020.6 |
| 20260904151815 | 29 | 51 | 1.6 | 4.8 | 0.00 | 0.53 | 0.53 | 69 | 1020.6 |
| 20260904151314 | 28 | 138 | 6.4 | 14.5 | 0.00 | 0.53 | 0.53 | 70 | 1020.5 |
| 20260904150811 | 28 | 343 | 1.6 | 9.7 | 0.00 | 0.53 | 0.53 | 72 | 1020.6 |
| 20260904150306 | 29 | 78 | 11.3 | 14.5 | 0.00 | 0.53 | 0.53 | 69 | 1020.7 |
| 20260904145803 | 28 | 193 | 3.2 | 6.4 | 0.00 | 0.53 | 0.53 | 75 | 1020.8 |
| 20260904145259 | 28 | 73 | 3.2 | 4.8 | 0.00 | 0.53 | 0.53 | 76 | 1020.6 |
| 20260904144755 | 28 | 201 | 0.0 | 9.7 | 0.00 | 0.53 | 0.53 | 73 | 1021.0 |
| 20260904144251 | 28 | 71 | 3.2 | 4.8 | 0.00 | 0.53 | 0.53 | 74 | 1020.8 |
| 20260904143746 | 27 | 14 | 0.0 | 0.0 | 0.00 | 0.53 | 0.53 | 78 | 1020.6 |
| 20260904143243 | 28 | 154 | 1.6 | 3.2 | 0.00 | 0.53 | 0.53 | 74 | 1020.8 |
| 20260904142739 | 28 | 65 | 6.4 | 6.4 | 0.00 | 0.53 | 0.53 | 78 | 1020.7 |
| 20260904142235 | 27 | 88 | 3.2 | 6.4 | 0.00 | 0.53 | 0.53 | 81 | 1020.6 |
| 20260904141734 | 27 | 81 | 3.2 | 4.8 | 0.00 | 0.53 | 0.53 | 84 | 1020.5 |
| 20260904141230 | 27 | 128 | 3.2 | 11.3 | 0.00 | 0.53 | 0.53 | 77 | 1020.7 |
| 20260904140725 | 27 | 47 | 6.4 | 9.7 | 0.00 | 0.53 | 0.53 | 84 | 1020.6 |
| 20260904140220 | 27 | 10 | 0.0 | 1.6 | 0.00 | 0.53 | 0.53 | 84 | 1020.8 |
| 20260904135719 | 27 | 49 | 0.0 | 3.2 | 0.00 | 0.53 | 0.53 | 77 | 1020.8 |
| 20260904135215 | 26 | 79 | 3.2 | 4.8 | 0.00 | 0.53 | 0.53 | 86 | 1020.8 |
| 20260904134710 | 25 | 50 | 1.6 | 3.2 | 0.00 | 0.53 | 0.53 | 90 | 1020.9 |
| 20260904134210 | 25 | 110 | 0.0 | 1.6 | 0.00 | 0.53 | 0.53 | 92 | 1021.1 |
| 20260904133705 | 25 | 321 | 0.0 | 0.0 | 0.00 | 0.53 | 0.53 | 95 | 1021.0 |
| 20260904133201 | 23 | 44 | 0.0 | 3.2 | 0.00 | 0.53 | 0.53 | 96 | 1021.0 |
| 20260904132700 | 23 | 64 | 4.8 | 4.8 | 0.00 | 0.53 | 0.53 | 96 | 1021.0 |
| 20260904132156 | 23 | 18 | 0.0 | 0.0 | 0.00 | 0.53 | 0.53 | 97 | 1021.1 |
| 20260904131654 | 23 | 137 | 0.0 | 0.0 | 0.00 | 0.53 | 0.53 | 96 | 1021.1 |
| 20260904131150 | 23 | 273 | 0.0 | 0.0 | 0.00 | 0.53 | 0.53 | 97 | 1021.1 |
| 20260904130645 | 23 | 78 | 0.0 | 4.8 | 0.00 | 0.53 | 0.53 | 97 | 1021.1 |
| 20260904130145 | 23 | 346 | 0.0 | 6.4 | 0.00 | 0.53 | 0.53 | 98 | 1021.0 |
| 20260904125641 | 22 | 59 | 8.0 | 16.1 | 0.00 | 0.53 | 0.53 | 98 | 1021.0 |
| 20260904125136 | 22 | 160 | 3.2 | 3.2 | 0.00 | 0.53 | 0.53 | 99 | 1021.3 |
| 20260904124631 | 21 | 52 | 8.0 | 11.3 | 0.00 | 0.53 | 0.53 | 99 | 1021.1 |
| 20260904124127 | 21 | 194 | 0.0 | 0.0 | 0.00 | 0.53 | 0.53 | 99 | 1021.4 |
| 20260904123627 | 21 | 13 | 0.0 | 0.0 | 0.00 | 0.53 | 0.53 | 99 | 1021.4 |
| 20260904123123 | 21 | 108 | 0.0 | 0.0 | 0.00 | 0.53 | 0.53 | 99 | 1021.5 |
| 20260904122617 | 20 | 61 | 0.0 | 0.0 | 0.00 | 0.53 | 0.53 | 99 | 1021.3 |
| 20260904122112 | 20 | 239 | 0.0 | 0.0 | 0.00 | 0.53 | 0.53 | 99 | 1021.4 |
| 20260904121608 | 20 | 86 | 6.4 | 9.7 | 0.00 | 0.53 | 0.53 | 99 | 1021.2 |
| 20260904121103 | 20 | 311 | 0.0 | 0.0 | 0.00 | 0.53 | 0.53 | 99 | 1021.2 |
| 20260904120559 | 20 | 115 | 0.0 | 0.0 | 0.00 | 0.53 | 0.53 | 99 | 1021.1 |
| 20260904120055 | 20 | 112 | 0.0 | 0.0 | 0.00 | 0.53 | 0.53 | 99 | 1021.2 |
| 20260904115550 | 20 | 60 | 0.0 | 0.0 | 0.00 | 0.53 | 0.53 | 99 | 1020.9 |
| 20260904115044 | 20 | 66 | 0.0 | 1.6 | 0.00 | 0.53 | 0.53 | 99 | 1021.1 |
| 20260904114539 | 19 | 77 | 0.0 | 0.0 | 0.00 | 0.53 | 0.53 | 99 | 1021.0 |
| 20260904114038 | 19 | 110 | 0.0 | 0.0 | 0.00 | 0.53 | 0.53 | 99 | 1020.7 |
| 20260904113533 | 19 | 278 | 0.0 | 0.0 | 0.00 | 0.53 | 0.53 | 99 | 1021.0 |
| 20260904113033 | 18 | 58 | 0.0 | 0.0 | 0.00 | 0.53 | 0.53 | 99 | 1020.8 |
| 20260904112528 | 19 | 273 | 0.0 | 0.0 | 0.00 | 0.53 | 0.53 | 99 | 1021.0 |
| 20260904112024 | 19 | 138 | 0.0 | 0.0 | 0.00 | 0.53 | 0.53 | 99 | 1021.0 |
| 20260904111519 | 18 | 66 | 0.0 | 0.0 | 0.00 | 0.53 | 0.53 | 99 | 1021.0 |
| 20260904111015 | 18 | 260 | 0.0 | 0.0 | 0.00 | 0.53 | 0.53 | 99 | 1021.0 |
| 20260904110514 | 18 | 165 | 0.0 | 0.0 | 0.00 | 0.53 | 0.53 | 99 | 1021.2 |
| 20260904110011 | 18 | 242 | 0.0 | 0.0 | 0.00 | 0.53 | 0.53 | 99 | 1021.0 |
| 20260904105509 | 18 | 63 | 0.0 | 0.0 | 0.00 | 0.53 | 0.53 | 99 | 1021.0 |
| 20260904105005 | 18 | 115 | 0.0 | 0.0 | 0.00 | 0.53 | 0.53 | 99 | 1021.0 |
| 20260904104500 | 18 | 245 | 0.0 | 0.0 | 0.00 | 0.53 | 0.53 | 99 | 1020.8 |
| 20260904103956 | 18 | 54 | 0.0 | 0.0 | 0.00 | 0.53 | 0.53 | 99 | 1020.7 |
| 20260904103451 | 18 | 81 | 0.0 | 0.0 | 0.00 | 0.53 | 0.53 | 99 | 1020.7 |
| 20260904102948 | 18 | 230 | 0.0 | 0.0 | 0.00 | 0.53 | 0.53 | 99 | 1020.8 |
| 20260904102443 | 19 | 130 | 0.0 | 0.0 | 0.00 | 0.53 | 0.53 | 99 | 1020.7 |
| 20260904101933 | 18 | 115 | 0.0 | 0.0 | 0.00 | 0.53 | 0.53 | 99 | 1020.7 |
| 20260904101429 | 18 | 192 | 0.0 | 0.0 | 0.00 | 0.53 | 0.53 | 99 | 1020.6 |
| 20260904100925 | 19 | 300 | 0.0 | 0.0 | 0.00 | 0.53 | 0.53 | 99 | 1020.6 |
| 20260904100421 | 18 | 179 | 0.0 | 0.0 | 0.00 | 0.53 | 0.53 | 99 | 1020.7 |
| 20260904095920 | 19 | 97 | 0.0 | 0.0 | 0.00 | 0.53 | 0.53 | 99 | 1020.7 |
| 20260904095415 | 19 | 292 | 0.0 | 0.0 | 0.00 | 0.53 | 0.53 | 99 | 1020.6 |
| 20260904094905 | 19 | 9 | 0.0 | 0.0 | 0.00 | 0.53 | 0.53 | 99 | 1020.5 |
| 20260904094400 | 19 | 227 | 0.0 | 1.6 | 0.00 | 0.53 | 0.53 | 99 | 1020.8 |
| 20260904093856 | 19 | 33 | 0.0 | 0.0 | 0.00 | 0.53 | 0.53 | 99 | 1020.4 |
| 20260904093356 | 19 | 25 | 0.0 | 0.0 | 0.00 | 0.53 | 0.53 | 99 | 1020.4 |
| 20260904092851 | 19 | 10 | 0.0 | 0.0 | 0.00 | 0.53 | 0.53 | 99 | 1020.6 |
| 20260904092347 | 19 | 82 | 0.0 | 0.0 | 0.00 | 0.53 | 0.53 | 99 | 1020.5 |
| 20260904091838 | 19 | 54 | 0.0 | 0.0 | 0.00 | 0.53 | 0.53 | 99 | 1020.3 |
| 20260904091333 | 19 | 48 | 0.0 | 3.2 | 0.00 | 0.53 | 0.53 | 99 | 1020.4 |
| 20260904090828 | 19 | 319 | 0.0 | 0.0 | 0.00 | 0.53 | 0.53 | 99 | 1020.1 |
| 20260904090324 | 19 | 56 | 0.0 | 0.0 | 0.00 | 0.53 | 0.53 | 99 | 1019.9 |
| 20260904085818 | 19 | 43 | 0.0 | 0.0 | 0.00 | 0.53 | 0.53 | 99 | 1020.0 |
| 20260904085313 | 19 | 89 | 1.6 | 3.2 | 0.00 | 0.53 | 0.53 | 99 | 1020.1 |
| 20260904084808 | 19 | 5 | 0.0 | 0.0 | 0.00 | 0.53 | 0.53 | 99 | 1020.1 |
| 20260904084304 | 19 | 74 | 0.0 | 0.0 | 0.00 | 0.53 | 0.53 | 99 | 1020.1 |
| 20260904083800 | 19 | 68 | 3.2 | 4.8 | 0.00 | 0.53 | 0.53 | 99 | 1020.3 |
| 20260904083257 | 19 | 68 | 0.0 | 0.0 | 0.00 | 0.53 | 0.53 | 99 | 1020.4 |
| 20260904082756 | 19 | 27 | 0.0 | 0.0 | 0.00 | 0.53 | 0.53 | 99 | 1020.3 |
| 20260904082251 | 19 | 101 | 0.0 | 0.0 | 0.00 | 0.53 | 0.53 | 99 | 1020.6 |
| 20260904081747 | 19 | 105 | 0.0 | 0.0 | 0.00 | 0.53 | 0.53 | 99 | 1020.5 |
| 20260904081242 | 19 | 234 | 0.0 | 0.0 | 0.00 | 0.53 | 0.53 | 99 | 1020.4 |
| 20260904080737 | 19 | 64 | 0.0 | 0.0 | 0.00 | 0.53 | 0.53 | 99 | 1020.5 |
| 20260904080228 | 19 | 300 | 0.0 | 0.0 | 0.00 | 0.53 | 0.53 | 99 | 1020.1 |
| 20260904075725 | 19 | 335 | 0.0 | 1.6 | 0.00 | 0.53 | 0.53 | 99 | 1020.1 |
| 20260904075224 | 19 | 279 | 0.0 | 0.0 | 0.00 | 0.53 | 0.53 | 99 | 1020.5 |
| 20260904074723 | 19 | 20 | 0.0 | 0.0 | 0.00 | 0.53 | 0.53 | 99 | 1020.5 |
| 20260904074218 | 19 | 220 | 0.0 | 0.0 | 0.00 | 0.53 | 0.53 | 99 | 1020.5 |
| 20260904073714 | 20 | 5 | 0.0 | 0.0 | 0.00 | 0.53 | 0.53 | 99 | 1020.6 |
| 20260904073210 | 20 | 1 | 0.0 | 0.0 | 0.00 | 0.53 | 0.53 | 99 | 1020.3 |
| 20260904072705 | 20 | 22 | 0.0 | 0.0 | 0.00 | 0.53 | 0.53 | 99 | 1020.1 |
| 20260904072200 | 20 | 35 | 0.0 | 0.0 | 0.00 | 0.53 | 0.53 | 99 | 1020.1 |
| 20260904071656 | 20 | 329 | 0.0 | 0.0 | 0.00 | 0.53 | 0.53 | 99 | 1020.0 |
| 20260904071150 | 20 | 60 | 0.0 | 0.0 | 0.00 | 0.53 | 0.53 | 99 | 1020.1 |
| 20260904070649 | 20 | 90 | 0.0 | 0.0 | 0.00 | 0.53 | 0.53 | 99 | 1020.0 |
| 20260904070143 | 20 | 104 | 0.0 | 0.0 | 0.00 | 0.53 | 0.53 | 99 | 1019.8 |
| 20260904065638 | 20 | 324 | 0.0 | 0.0 | 0.00 | 0.53 | 0.53 | 99 | 1019.9 |
| 20260904065136 | 20 | 78 | 0.0 | 0.0 | 0.00 | 0.53 | 0.53 | 99 | 1019.8 |
| 20260904064631 | 20 | 72 | 0.0 | 0.0 | 0.00 | 0.53 | 0.53 | 99 | 1019.7 |
| 20260904064130 | 20 | 50 | 0.0 | 0.0 | 0.00 | 0.53 | 0.53 | 99 | 1020.1 |
| 20260904063626 | 20 | 44 | 0.0 | 0.0 | 0.00 | 0.53 | 0.53 | 99 | 1020.0 |
| 20260904063121 | 20 | 35 | 0.0 | 0.0 | 0.00 | 0.53 | 0.53 | 99 | 1020.0 |
| 20260904062618 | 20 | 35 | 0.0 | 0.0 | 0.00 | 0.53 | 0.53 | 99 | 1020.1 |
| 20260904062113 | 20 | 43 | 0.0 | 0.0 | 0.00 | 0.53 | 0.53 | 99 | 1020.0 |
| 20260904061609 | 20 | 57 | 0.0 | 0.0 | 0.00 | 0.53 | 0.53 | 99 | 1020.0 |
| 20260904061105 | 20 | 196 | 0.0 | 0.0 | 0.00 | 0.53 | 0.53 | 99 | 1019.9 |
| 20260904060601 | 20 | 192 | 0.0 | 0.0 | 0.00 | 0.53 | 0.53 | 99 | 1020.3 |
| 20260904060057 | 20 | 93 | 0.0 | 0.0 | 0.00 | 0.53 | 0.53 | 99 | 1020.3 |
| 20260904055552 | 20 | 112 | 0.0 | 0.0 | 0.00 | 0.53 | 0.53 | 99 | 1020.5 |
| 20260904055047 | 20 | 93 | 0.0 | 0.0 | 0.00 | 0.53 | 0.53 | 99 | 1020.5 |
| 20260904054543 | 20 | 275 | 0.0 | 0.0 | 0.00 | 0.53 | 0.53 | 99 | 1020.5 |
| 20260904054038 | 20 | 232 | 0.0 | 0.0 | 0.00 | 0.53 | 0.53 | 99 | 1021.1 |
| 20260904053538 | 20 | 302 | 0.0 | 0.0 | 0.00 | 0.53 | 0.53 | 99 | 1020.9 |
| 20260904053033 | 20 | 269 | 0.0 | 0.0 | 0.00 | 0.53 | 0.53 | 99 | 1021.2 |
| 20260904052529 | 20 | 198 | 0.0 | 0.0 | 0.00 | 0.53 | 0.53 | 99 | 1021.3 |
| 20260904052025 | 20 | 250 | 0.0 | 0.0 | 0.00 | 0.53 | 0.53 | 99 | 1021.6 |
| 20260904051522 | 21 | 155 | 0.0 | 0.0 | 0.00 | 0.53 | 0.53 | 99 | 1021.6 |
| 20260904051020 | 21 | 192 | 1.6 | 3.2 | 0.00 | 0.53 | 0.53 | 99 | 1021.9 |
| 20260904050517 | 21 | 156 | 1.6 | 3.2 | 0.00 | 0.53 | 0.53 | 99 | 1021.8 |
| 20260904050013 | 21 | 209 | 4.8 | 6.4 | 0.00 | 0.53 | 0.53 | 99 | 1022.3 |
| 20260904045507 | 21 | 229 | 3.2 | 9.7 | 0.13 | 0.53 | 0.53 | 98 | 1021.9 |
| 20260904045002 | 21 | 38 | 9.7 | 11.3 | 0.79 | 0.53 | 0.53 | 98 | 1021.7 |
| 20260904044458 | 21 | 12 | 0.0 | 0.0 | 1.27 | 0.51 | 0.51 | 98 | 1022.7 |
| 20260904043954 | 21 | 70 | 4.8 | 6.4 | 0.79 | 0.38 | 0.38 | 98 | 1022.9 |
| 20260904043450 | 21 | 226 | 0.0 | 1.6 | 1.80 | 0.30 | 0.30 | 96 | 1022.9 |
| 20260904042946 | 22 | 41 | 3.2 | 6.4 | 1.37 | 0.23 | 0.23 | 94 | 1022.1 |
| 20260904042442 | 23 | 187 | 1.6 | 3.2 | 0.00 | 0.00 | 0.00 | 91 | 1022.6 |
| 20260904041936 | 23 | 19 | 0.0 | 1.6 | 0.00 | 0.00 | 0.00 | 89 | 1022.2 |
| 20260904041433 | 23 | 207 | 0.0 | 1.6 | 0.00 | 0.00 | 0.00 | 89 | 1022.4 |
| 20260904040929 | 23 | 13 | 1.6 | 3.2 | 0.00 | 0.00 | 0.00 | 88 | 1022.5 |
| 20260904040429 | 23 | 265 | 1.6 | 1.6 | 0.00 | 0.00 | 0.00 | 91 | 1022.3 |
| 20260904035925 | 23 | 6 | 0.0 | 3.2 | 0.00 | 0.00 | 0.00 | 91 | 1022.1 |
| 20260904035421 | 22 | 89 | 3.2 | 6.4 | 0.00 | 0.00 | 0.00 | 92 | 1022.5 |
| 20260904034920 | 22 | 37 | 3.2 | 6.4 | 0.00 | 0.00 | 0.00 | 99 | 1022.6 |
| 20260904034415 | 21 | 25 | 0.0 | 0.0 | 0.00 | 0.00 | 0.00 | 99 | 1022.2 |
| 20260904033911 | 22 | 318 | 0.0 | 0.0 | 0.00 | 0.00 | 0.00 | 99 | 1022.2 |
| 20260904033407 | 21 | 76 | 0.0 | 0.0 | 0.00 | 0.00 | 0.00 | 99 | 1021.9 |
| 20260904032903 | 21 | 70 | 0.0 | 0.0 | 0.00 | 0.00 | 0.00 | 99 | 1021.9 |
| 20260904032358 | 21 | 112 | 0.0 | 0.0 | 0.00 | 0.00 | 0.00 | 99 | 1022.2 |
| 20260904031852 | 21 | 186 | 0.0 | 0.0 | 0.00 | 0.00 | 0.00 | 99 | 1022.1 |
| 20260904031347 | 22 | 256 | 0.0 | 0.0 | 0.00 | 0.00 | 0.00 | 99 | 1022.3 |
| 20260904030844 | 21 | 156 | 0.0 | 0.0 | 0.00 | 0.00 | 0.00 | 99 | 1022.3 |
| 20260904030339 | 21 | 218 | 0.0 | 0.0 | 0.00 | 0.00 | 0.00 | 99 | 1022.4 |
| 20260904025834 | 21 | 78 | 0.0 | 0.0 | 0.00 | 0.00 | 0.00 | 99 | 1022.3 |
| 20260904025330 | 21 | 67 | 0.0 | 0.0 | 0.00 | 0.00 | 0.00 | 99 | 1022.4 |
| 20260904024824 | 21 | 100 | 0.0 | 0.0 | 0.00 | 0.00 | 0.00 | 99 | 1022.3 |
| 20260904024319 | 21 | 100 | 0.0 | 0.0 | 0.00 | 0.00 | 0.00 | 99 | 1021.8 |
| 20260904023816 | 21 | 88 | 0.0 | 0.0 | 0.00 | 0.00 | 0.00 | 99 | 1021.5 |
| 20260904023312 | 21 | 186 | 0.0 | 0.0 | 0.00 | 0.00 | 0.00 | 99 | 1021.4 |